QPF
0.00 0.00 0.00 0.00 0.00 0.00 0.00 0.00 0.00 0.00 0.00 0.00 0.00 0.00 0.00 0.00 0.00 0.00 0.00 0.00 0.00 0.00 0.00 0.00 0.00 0.00 0.00 0.00 0.00 0.00 0.00 0.00 0.00 0.00 0.00 0.00 0.00 0.00 0.00 0.00 0.00 0.00 0.00 0.00 0.00
0.00 0.00 0.00 0.00 0.00 0.00 0.00 0.00 0.00 0.00 0.00 0.00 0.00 0.00 0.00 0.00 0.00 0.00 0.00 0.00 0.00 0.00 0.00 0.00 0.00 0.00 0.00 0.00 0.00 0.00 0.00 0.00 0.00 0.00 0.00 0.00 0.00 0.00 0.00 0.00 0.00 0.00 0.00 0.00 0.00
0.00 0.00 0.00 0.00 0.00 0.00 0.00 0.00 0.00 0.00 0.00 0.00 0.00 0.00 0.00 0.00 0.00 0.00 0.00 0.00 0.00 0.00 0.00 0.00 0.00 0.00 0.00 0.00 0.00 0.00 0.00 0.00 0.00 0.00 0.00 0.00 0.00 0.00 0.00 0.00 0.00 0.00 0.00 0.00 0.00
0.00 0.00 0.00 0.00 0.00 0.00 0.00 0.00 0.00 0.00 0.00 0.00 0.00 0.00 0.00 0.00 0.00 0.00 0.00 0.00 0.00 0.00 0.00 0.00 0.00 0.00 0.00 0.00 0.00 0.00 0.00 0.00 0.00 0.00 0.00 0.00 0.00 0.00 0.00 0.00 0.00 0.00 0.00 0.00 0.00
0.00 0.00 0.00 0.00 0.00 0.00 0.00 0.00 0.00 0.00 0.00 0.00 0.00 0.00 0.00 0.00 0.00 0.00 0.00 0.00 0.00 0.00 0.00 0.00 0.00 0.00 0.00 0.00 0.00 0.00 0.00 0.00 0.00 0.00 0.00 0.00 0.00 0.00 0.00 0.00 0.00 0.00 0.00 0.00 0.00
0.00 0.00 0.00 0.00 0.00 0.00 0.00 0.00 0.00 0.00 0.00 0.00 0.00 0.00 0.00 0.00 0.00 0.00 0.00 0.00 0.00 0.00 0.00 0.00 0.00 0.00 0.00 0.00 0.00 0.00 0.00 0.00 0.00 0.00 0.00 0.00 0.00 0.00 0.00 0.00 0.00 0.00 0.00 0.00 0.00
0.00 0.00 0.00 0.00 0.00 0.00 0.00 0.00 0.00 0.00 0.00 0.00 0.00 0.00 0.00 0.00 0.00 0.00 0.00 0.00 0.00 0.00 0.00 0.00 0.00 0.00 0.00 0.00 0.00 0.00 0.00 0.00 0.00 0.00 0.00 0.00 0.00 0.00 0.00 0.00 0.00 0.00 0.00 0.00 0.00
0.00 0.00 0.00 0.00 0.00 0.00 0.00 0.00 0.00 0.00 0.00 0.00 0.00 0.00 0.00 0.00 0.00 0.00 0.00 0.00 0.00 0.00 0.00 0.00 0.00 0.00 0.00 0.00 0.00 0.00 0.00 0.00 0.00 0.00 0.00 0.00 0.00 0.00 0.00 0.00 0.00 0.00 0.00 0.00 0.00
0.00 0.00 0.00 0.00 0.00 0.00 0.00 0.00 0.00 0.00 0.00 0.00 0.00 0.00 0.00 0.00 0.00 0.00 0.00 0.00 0.00 0.00 0.00 0.00 0.00 0.00 0.00 0.00 0.00 0.00 0.00 0.00 0.00 0.00 0.00 0.00 0.00 0.00 0.00 0.00 0.00 0.00 0.00 0.00 0.00
0.00 0.00 0.00 0.00 0.00 0.00 0.00 0.00 0.00 0.00 0.00 0.00 0.00 0.00 0.00 0.00 0.00 0.00 0.00 0.00 0.00 0.00 0.00 0.00 0.00 0.00 0.00 0.00 0.00 0.00 0.00 0.00 0.00 0.00 0.00 0.00 0.00 0.00 0.00 0.00 0.00 0.00 0.00 0.00 0.00
0.00 0.00 0.00 0.00 0.00 0.00 0.00 0.00 0.00 0.00 0.00 0.00 0.00 0.00 0.00 0.00 0.00 0.00 0.00 0.00 0.00 0.00 0.00 0.00 0.00 0.00 0.00 0.00 0.00 0.00 0.00 0.00 0.00 0.00 0.00 0.00 0.00 0.00 0.00 0.00 0.00 0.00 0.00 0.00 0.00
0.00 0.00 0.00 0.00 0.00 0.00 0.00 0.00 0.00 0.00 0.00 0.00 0.00 0.00 0.00 0.00 0.00 0.00 0.00 0.00 0.00 0.00 0.00 0.00 0.00 0.00 0.00 0.00 0.00 0.00 0.00 0.00 0.00 0.00 0.00 0.00 0.00 0.00 0.00 0.00 0.00 0.00 0.00 0.00 0.00
0.00 0.00 0.00 0.00 0.00 0.00 0.00 0.00 0.00 0.00 0.00 0.00 0.00 0.00 0.00 0.00 0.00 0.00 0.00 0.00 0.00 0.00 0.00 0.00 0.00 0.00 0.00 0.00 0.00 0.00 0.00 0.00 0.00 0.00 0.00 0.00 0.00 0.00 0.00 0.00 0.00 0.00 0.00 0.00 0.00
0.00 0.00 0.00 0.00 0.00 0.00 0.00 0.00 0.00 0.00 0.00 0.00 0.00 0.00 0.00 0.00 0.00 0.00 0.00 0.00 0.00 0.00 0.00 0.00 0.00 0.00 0.00 0.00 0.00 0.00 0.00 0.00 0.00 0.00 0.00 0.00 0.00 0.00 0.00 0.00 0.00 0.00 0.00 0.00 0.00
0.00 0.00 0.00 0.00 0.00 0.00 0.00 0.00 0.00 0.00 0.00 0.00 0.00 0.00 0.00 0.00 0.00 0.00 0.00 0.00 0.00 0.00 0.00 0.01 0.00 0.00 0.00 0.00 0.00 0.00 0.00 0.00 0.00 0.00 0.00 0.00 0.00 0.00 0.00 0.00 0.00 0.00 0.00 0.00 0.00
0.00 0.00 0.00 0.00 0.00 0.00 0.00 0.00 0.00 0.00 0.00 0.00 0.00 0.00 0.00 0.00 0.00 0.00 0.00 0.00 0.00 0.00 0.00 0.00 0.00 0.00 0.00 0.00 0.00 0.00 0.00 0.00 0.00 0.00 0.00 0.00 0.00 0.00 0.00 0.00 0.00 0.00 0.00 0.00 0.00
0.00 0.00 0.00 0.00 0.00 0.00 0.00 0.00 0.00 0.00 0.00 0.00 0.00 0.00 0.00 0.00 0.00 0.00 0.00 0.00 0.00 0.00 0.00 0.00 0.00 0.00 0.00 0.00 0.00 0.00 0.00 0.00 0.00 0.00 0.00 0.00 0.00 0.00 0.00 0.00 0.00 0.00 0.00 0.00 0.00
0.01 0.01 0.00 0.00 0.00 0.00 0.00 0.00 0.00 0.00 0.00 0.00 0.00 0.00 0.00 0.00 0.00 0.00 0.00 0.00 0.00 0.00 0.00 0.00 0.00 0.00 0.00 0.00 0.00 0.00 0.00 0.00 0.00 0.00 0.00 0.00 0.00 0.00 0.00 0.00 0.00 0.00 0.00 0.00 0.00
0.01 0.00 0.00 0.00 0.00 0.00 0.00 0.00 0.00 0.00 0.00 0.00 0.00 0.00 0.00 0.00 0.00 0.00 0.00 0.00 0.00 0.00 0.00 0.00 0.00 0.00 0.00 0.00 0.00 0.00 0.00 0.00 0.00 0.00 0.00 0.00 0.00 0.00 0.00 0.00 0.00 0.00 0.00 0.00 0.00
0.02 0.01 0.00 0.00 0.00 0.00 0.00 0.00 0.00 0.00 0.00 0.00 0.00 0.00 0.00 0.00 0.00 0.00 0.00 0.00 0.00 0.00 0.00 0.00 0.00 0.00 0.00 0.00 0.00 0.00 0.00 0.00 0.00 0.00 0.00 0.00 0.00 0.00 0.00 0.00 0.00 0.00 0.00 0.00 0.00
0.03 0.01 0.00 0.00 0.02 0.01 0.00 0.00 0.00 0.00 0.00 0.00 0.00 0.00 0.00 0.00 0.00 0.00 0.00 0.00 0.00 0.00 0.00 0.00 0.00 0.00 0.00 0.00 0.00 0.00 0.00 0.00 0.00 0.00 0.00 0.00 0.00 0.00 0.00 0.00 0.00 0.00 0.00 0.00 0.00
0.03 0.01 0.00 0.01 0.02 0.01 0.00 0.00 0.00 0.00 0.00 0.00 0.00 0.00 0.00 0.00 0.00 0.00 0.00 0.00 0.00 0.00 0.00 0.00 0.00 0.00 0.00 0.00 0.00 0.00 0.00 0.00 0.00 0.00 0.00 0.00 0.00 0.00 0.00 0.00 0.00 0.00 0.00 0.00 0.00
0.05 0.02 0.01 0.06 0.02 0.01 0.00 0.00 0.00 0.00 0.00 0.00 0.00 0.00 0.00 0.00 0.00 0.00 0.00 0.00 0.00 0.00 0.00 0.00 0.00 0.00 0.00 0.00 0.00 0.00 0.00 0.00 0.00 0.00 0.00 0.00 0.00 0.00 0.00 0.00 0.00 0.00 0.00 0.00 0.00
0.04 0.03 0.03 0.06 0.04 0.01 0.01 0.00 0.00 0.00 0.00 0.00 0.00 0.00 0.00 0.00 0.00 0.00 0.00 0.00 0.00 0.00 0.00 0.00 0.00 0.00 0.00 0.00 0.00 0.00 0.00 0.00 0.00 0.00 0.00 0.00 0.00 0.00 0.00 0.00 0.00 0.00 0.00 0.00 0.00
0.07 0.03 0.01 0.01 0.02 0.04 0.02 0.01 0.00 0.00 0.00 0.01 0.00 0.00 0.00 0.00 0.00 0.00 0.00 0.00 0.00 0.00 0.00 0.00 0.00 0.00 0.00 0.00 0.00 0.00 0.00 0.00 0.00 0.00 0.00 0.00 0.00 0.00 0.00 0.00 0.00 0.00 0.00 0.00 0.00
0.05 0.02 0.02 0.01 0.01 0.01 0.03 0.02 0.01 0.01 0.01 0.01 0.01 0.01 0.03 0.01 0.00 0.00 0.01 0.01 0.00 0.00 0.01 0.00 0.00 0.01 0.00 0.00 0.00 0.00 0.00 0.00 0.00 0.00 0.00 0.00 0.00 0.00 0.00 0.00 0.00 0.00 0.00 0.00 0.00
0.05 0.02 0.03 0.01 0.01 0.02 0.01 0.01 0.01 0.01 0.01 0.00 0.00 0.02 0.03 0.04 0.07 0.03 0.02 0.01 0.00 0.00 0.00 0.00 0.00 0.01 0.01 0.01 0.01 0.00 0.00 0.00 0.00 0.00 0.00 0.00 0.00 0.00 0.00 0.00 0.00 0.00 0.00 0.00 0.00
MSLP
1023.37 1023.13 1022.85 1022.49 1022.33 1021.98 1021.57 1021.20 1020.87 1020.28 1019.60 1019.08 1018.46 1018.00 1017.24 1016.64 1015.62 1013.77 1012.07 1011.30 1011.24 1011.64 1012.32 1011.41 1011.64 1010.91 1010.57 1009.88 1009.96 1009.34 1007.67 1005.83 1005.50 1005.60 1005.44 1006.03 1006.36 1006.33 1006.63 1006.37 1006.40 1006.28 1006.04 1006.45 1007.50
1023.47 1023.13 1022.73 1022.49 1022.24 1021.76 1021.44 1021.05 1020.69 1020.22 1019.73 1019.05 1018.51 1017.91 1017.27 1016.58 1014.94 1012.58 1011.08 1011.29 1011.47 1011.53 1011.20 1010.56 1010.26 1010.56 1009.52 1009.51 1009.23 1008.60 1006.94 1005.42 1005.60 1005.72 1005.65 1005.85 1006.12 1006.05 1006.03 1005.37 1005.37 1005.38 1005.75 1006.80 1007.55
1023.49 1023.24 1022.73 1022.27 1021.93 1021.77 1021.25 1020.98 1020.51 1019.92 1019.26 1018.80 1018.46 1017.86 1017.37 1016.53 1013.86 1010.59 1011.18 1011.22 1011.31 1011.17 1010.57 1010.22 1009.56 1009.93 1009.15 1008.72 1008.49 1007.80 1006.59 1005.59 1005.88 1006.08 1006.09 1005.76 1005.57 1005.48 1005.35 1004.53 1004.16 1004.13 1004.62 1005.66 1006.90
1023.36 1023.12 1022.71 1022.21 1021.79 1021.49 1021.16 1020.76 1020.33 1019.77 1019.16 1018.50 1018.25 1017.83 1017.11 1015.96 1012.58 1010.41 1011.19 1011.27 1011.35 1010.80 1010.26 1010.10 1009.75 1009.04 1008.85 1008.03 1007.67 1007.60 1006.89 1006.15 1005.71 1005.75 1006.08 1005.66 1005.29 1005.03 1004.79 1004.31 1004.20 1004.81 1004.97 1005.79 1006.43
1023.31 1023.10 1022.79 1022.29 1021.71 1021.26 1020.93 1020.39 1019.87 1019.27 1018.85 1018.30 1017.93 1017.71 1016.74 1014.54 1011.10 1010.29 1011.20 1011.39 1010.80 1010.62 1009.89 1009.43 1009.25 1008.61 1008.07 1007.72 1007.34 1007.43 1006.47 1006.07 1005.71 1005.82 1005.73 1005.80 1005.14 1004.79 1004.09 1004.01 1004.14 1004.84 1005.57 1005.87 1006.19
1023.41 1022.99 1022.69 1022.24 1021.76 1021.13 1020.35 1020.02 1019.47 1018.82 1018.24 1017.74 1017.42 1017.57 1016.69 1013.25 1009.90 1010.36 1010.95 1010.78 1010.35 1010.09 1009.65 1009.37 1008.86 1008.69 1008.04 1007.82 1007.41 1006.34 1006.49 1005.89 1005.51 1005.28 1005.35 1005.25 1004.40 1004.13 1003.41 1003.54 1004.27 1004.90 1005.12 1005.67 1005.96
1023.37 1023.07 1022.72 1022.38 1021.72 1021.06 1020.15 1019.59 1018.88 1018.11 1017.43 1017.04 1016.90 1016.94 1015.63 1011.91 1010.67 1010.56 1010.79 1010.52 1010.18 1010.11 1009.70 1009.27 1009.13 1008.90 1008.19 1007.80 1007.53 1007.05 1006.50 1005.74 1005.15 1004.84 1004.64 1004.46 1003.45 1002.89 1003.14 1003.55 1003.93 1004.41 1004.93 1005.37 1005.69
1023.29 1022.94 1022.73 1022.22 1021.71 1020.90 1019.86 1018.86 1018.28 1017.68 1017.01 1016.74 1016.65 1016.40 1013.40 1011.36 1011.19 1010.67 1010.06 1010.16 1010.31 1010.34 1010.37 1009.76 1009.31 1008.76 1008.31 1007.88 1007.59 1006.99 1006.07 1004.88 1003.96 1003.99 1004.20 1004.47 1001.99 1002.00 1002.81 1003.30 1003.06 1003.37 1004.16 1005.02 1005.64
1023.11 1023.01 1022.57 1022.07 1021.39 1020.65 1019.54 1018.47 1017.76 1017.43 1017.04 1016.75 1016.52 1015.52 1012.00 1010.99 1010.70 1010.13 1009.83 1009.44 1009.55 1009.96 1010.04 1009.82 1009.31 1008.49 1008.26 1007.90 1006.96 1006.08 1004.75 1003.80 1003.68 1003.83 1003.61 1003.78 1001.78 1001.42 1002.57 1002.70 1002.55 1002.67 1003.24 1003.99 1004.84
1022.93 1022.75 1022.41 1021.95 1021.25 1020.41 1019.29 1017.82 1017.16 1017.29 1016.75 1016.25 1016.03 1015.41 1011.51 1010.53 1010.39 1010.45 1009.89 1009.70 1009.19 1009.66 1009.84 1009.67 1008.97 1007.87 1007.48 1006.61 1005.04 1004.49 1004.25 1004.12 1003.48 1003.08 1003.67 1002.65 1002.00 1001.27 1001.25 1001.64 1001.78 1001.79 1002.37 1003.09 1003.96
1022.67 1022.62 1022.11 1021.80 1021.20 1020.35 1018.96 1017.03 1016.73 1016.32 1015.96 1015.58 1014.10 1013.23 1011.69 1011.00 1010.99 1009.82 1009.74 1009.49 1008.75 1009.00 1008.63 1008.88 1007.92 1006.13 1005.88 1005.91 1005.34 1004.58 1004.43 1003.67 1003.13 1003.42 1003.55 1002.54 1001.75 1001.01 1000.61 1000.47 1000.77 1001.12 1001.54 1002.22 1003.22
1022.54 1022.40 1022.03 1021.65 1021.08 1020.26 1019.10 1018.42 1019.72 1019.95 1016.79 1014.91 1013.65 1013.19 1012.43 1012.33 1011.48 1009.83 1009.91 1009.36 1008.30 1007.59 1007.92 1008.22 1006.65 1005.94 1005.95 1005.59 1005.47 1005.18 1004.73 1003.93 1003.49 1003.44 1003.60 1002.54 1001.44 1000.80 1000.28 999.86 1000.01 1000.19 1000.74 1001.33 1002.53
1022.31 1022.18 1022.01 1021.54 1020.89 1020.18 1019.70 1019.82 1020.24 1019.86 1017.85 1013.39 1012.56 1012.00 1011.47 1011.77 1010.66 1009.15 1009.42 1008.23 1008.01 1007.17 1006.98 1006.75 1005.47 1005.61 1005.50 1005.39 1005.40 1004.95 1004.46 1004.24 1003.70 1003.46 1003.14 1002.58 1001.21 1000.17 999.64 999.68 999.71 1000.12 1000.37 1000.75 1001.60
1022.10 1021.94 1021.86 1021.46 1021.04 1020.42 1019.55 1019.81 1019.88 1019.91 1016.96 1012.20 1011.28 1010.52 1010.90 1010.91 1009.70 1008.68 1008.75 1008.11 1007.62 1007.05 1006.74 1006.28 1005.61 1005.38 1005.21 1004.94 1005.15 1004.42 1004.56 1004.49 1004.09 1003.63 1002.28 1002.30 1000.29 999.46 998.88 998.77 998.58 998.72 999.63 1000.30 1001.06
1021.86 1021.78 1021.76 1021.57 1020.83 1020.02 1020.07 1019.91 1019.65 1019.63 1015.39 1011.62 1010.33 1010.10 1009.67 1010.12 1009.12 1008.25 1008.47 1008.28 1007.39 1006.95 1007.15 1005.39 1005.11 1004.85 1004.74 1004.35 1004.70 1004.40 1004.63 1004.24 1004.10 1003.33 1002.70 1001.91 1001.14 999.22 998.59 998.23 997.76 997.81 998.22 999.57 1000.59
1021.48 1021.45 1021.48 1021.03 1020.61 1020.24 1020.14 1019.71 1019.24 1017.90 1013.34 1011.01 1010.21 1009.89 1009.22 1009.24 1008.74 1008.26 1008.20 1008.34 1007.78 1007.38 1006.89 1006.52 1005.87 1005.43 1004.75 1004.37 1004.54 1004.61 1004.58 1004.26 1003.82 1003.20 1001.96 1001.60 1000.70 998.31 997.61 997.40 997.21 997.40 998.10 999.08 1000.17
1021.11 1021.14 1021.16 1020.63 1019.97 1020.20 1019.87 1018.84 1017.85 1015.16 1012.54 1011.56 1010.87 1010.38 1009.69 1009.27 1008.71 1008.36 1007.92 1007.82 1007.48 1007.07 1006.35 1006.14 1005.65 1004.94 1004.93 1004.57 1004.35 1004.76 1004.20 1003.46 1003.07 1002.40 1000.97 1000.30 1000.21 998.27 997.51 997.24 997.12 997.23 997.41 998.68 999.73
1020.76 1020.87 1020.56 1020.16 1020.15 1020.21 1019.51 1018.28 1016.15 1013.78 1012.78 1012.33 1011.73 1010.87 1010.05 1009.98 1009.28 1008.75 1008.07 1007.77 1007.91 1007.46 1006.40 1005.36 1004.61 1004.18 1003.94 1003.49 1003.32 1003.68 1003.56 1002.73 1001.72 1000.99 1000.13 1000.32 998.77 997.45 997.24 996.79 996.78 997.23 997.43 998.10 999.17
1020.47 1020.24 1020.07 1019.70 1020.14 1020.10 1019.09 1016.91 1014.11 1013.74 1013.66 1013.06 1012.11 1011.17 1010.30 1010.66 1010.22 1009.34 1008.82 1008.50 1008.55 1008.16 1007.27 1006.22 1004.60 1003.99 1003.62 1003.41 1003.29 1002.95 1003.08 1003.10 1002.52 1001.79 1001.09 999.37 998.61 997.98 997.15 996.84 996.70 996.63 996.88 997.39 998.41
1019.83 1019.78 1018.95 1019.37 1019.83 1019.67 1018.59 1016.01 1014.83 1014.87 1014.54 1013.86 1012.69 1012.09 1011.22 1011.12 1010.70 1010.21 1009.47 1009.24 1008.96 1009.03 1008.50 1007.70 1006.18 1004.49 1003.83 1003.35 1003.05 1002.45 1002.38 1002.83 1002.55 1001.34 1000.04 998.90 997.89 997.01 996.67 996.31 995.91 995.97 996.14 996.54 997.54
1019.76 1018.95 1018.26 1019.09 1019.56 1019.25 1017.47 1016.06 1015.55 1015.34 1015.35 1014.62 1013.63 1013.01 1012.55 1012.25 1011.79 1011.22 1010.35 1009.76 1009.54 1009.39 1009.19 1008.44 1007.60 1005.24 1004.47 1003.17 1002.33 1002.95 1002.59 1002.42 1001.86 1001.18 1000.01 998.73 997.33 997.00 996.80 996.26 995.88 995.69 995.79 996.22 996.93
1019.16 1018.75 1018.75 1018.89 1019.02 1018.07 1016.86 1016.57 1016.37 1015.64 1015.60 1015.26 1014.70 1014.12 1013.68 1013.19 1012.49 1011.90 1011.08 1010.57 1010.02 1010.27 1009.51 1009.48 1008.27 1006.64 1005.11 1003.94 1003.79 1003.47 1002.44 1002.34 1001.92 1001.16 1000.55 999.68 997.92 997.44 996.95 996.57 996.12 995.91 995.85 996.25 996.71
1018.86 1018.25 1018.97 1018.61 1017.50 1016.74 1016.56 1016.40 1016.32 1015.96 1015.61 1015.22 1014.67 1014.29 1014.01 1013.69 1013.22 1012.07 1011.60 1011.37 1011.16 1010.75 1010.24 1010.45 1008.88 1007.15 1005.42 1004.52 1004.29 1003.82 1003.47 1003.39 1002.86 1002.26 1000.60 999.85 998.42 997.62 997.52 997.16 996.75 996.20 995.70 996.04 996.63
1018.73 1017.90 1018.36 1018.31 1017.27 1016.16 1015.86 1015.73 1015.91 1016.06 1015.93 1015.60 1015.06 1014.68 1014.27 1013.78 1013.35 1012.51 1012.05 1011.90 1011.56 1011.43 1011.33 1011.28 1009.72 1008.24 1006.23 1005.28 1005.16 1004.65 1004.15 1003.87 1003.60 1002.60 1001.12 999.81 999.23 998.43 997.75 996.92 996.46 996.04 995.74 995.67 996.34
1018.01 1016.76 1016.21 1016.62 1016.78 1016.41 1015.85 1015.54 1015.27 1015.47 1015.68 1015.28 1014.91 1014.76 1014.46 1013.91 1013.40 1012.80 1012.52 1012.08 1011.64 1011.08 1010.73 1010.47 1009.61 1008.81 1007.96 1006.89 1005.90 1005.14 1004.32 1003.70 1003.08 1002.56 1001.66 1000.77 999.64 998.69 998.20 997.32 996.41 995.83 995.55 995.79 995.92
1017.04 1016.33 1015.86 1015.31 1015.26 1015.46 1015.55 1015.24 1015.11 1015.12 1015.13 1014.46 1014.51 1014.15 1014.30 1013.95 1013.52 1012.90 1012.89 1012.21 1011.64 1011.40 1011.00 1011.14 1009.83 1009.38 1008.19 1007.25 1006.23 1005.02 1003.90 1002.88 1002.24 1001.82 1000.91 1000.35 999.12 999.45 998.47 997.48 996.45 995.91 995.57 995.47 995.82
1016.52 1015.77 1015.48 1014.86 1014.85 1014.77 1014.58 1014.84 1014.54 1014.60 1014.42 1014.23 1014.13 1014.20 1014.01 1014.26 1014.64 1014.68 1014.06 1013.27 1012.65 1011.92 1011.49 1011.22 1010.50 1009.69 1007.98 1006.74 1005.81 1004.26 1002.65 1002.05 1000.99 1000.52 1000.38 999.38 998.53 997.90 997.18 996.58 995.85 995.48 995.34 995.20 995.42
Thickness
5609 5611 5613 5616 5617 5620 5623 5627 5629 5634 5639 5643 5648 5653 5659 5664 5671 5687 5697 5708 5707 5704 5697 5702 5697 5700 5701 5700 5699 5702 5692 5695 5698 5693 5698 5705 5691 5700 5698 5690 5691 5694 5695 5697 5689
5598 5601 5605 5607 5608 5612 5616 5619 5622 5626 5629 5634 5638 5643 5649 5655 5669 5683 5699 5699 5698 5697 5698 5696 5692 5691 5694 5691 5694 5691 5694 5703 5709 5704 5699 5700 5692 5692 5689 5693 5691 5695 5699 5693 5685
5589 5590 5595 5599 5602 5602 5608 5610 5615 5619 5624 5626 5628 5633 5638 5645 5667 5690 5690 5690 5690 5693 5695 5695 5697 5687 5684 5692 5692 5694 5692 5709 5702 5701 5699 5696 5694 5699 5689 5688 5701 5699 5701 5696 5684
5580 5582 5586 5590 5594 5595 5597 5602 5607 5610 5615 5620 5621 5623 5629 5637 5651 5683 5679 5680 5681 5685 5688 5683 5682 5680 5675 5679 5694 5680 5696 5701 5703 5701 5691 5689 5698 5692 5693 5694 5705 5699 5699 5691 5683
5571 5572 5575 5579 5585 5589 5590 5595 5600 5604 5606 5611 5613 5614 5623 5635 5656 5672 5667 5666 5673 5676 5677 5677 5673 5676 5672 5680 5686 5678 5692 5698 5702 5695 5692 5691 5688 5688 5694 5702 5705 5698 5688 5686 5684
5558 5562 5565 5569 5574 5578 5585 5586 5592 5596 5600 5603 5606 5605 5612 5625 5664 5659 5656 5659 5663 5664 5668 5670 5670 5673 5672 5672 5674 5691 5688 5693 5698 5695 5692 5684 5691 5693 5699 5706 5694 5689 5686 5686 5683
5547 5550 5552 5555 5562 5567 5575 5578 5585 5590 5594 5596 5598 5597 5605 5630 5647 5648 5647 5649 5653 5652 5653 5663 5665 5660 5668 5662 5675 5677 5672 5684 5691 5692 5689 5695 5689 5689 5702 5698 5691 5687 5684 5685 5683
5536 5540 5541 5546 5549 5556 5564 5572 5577 5582 5587 5588 5588 5589 5612 5631 5631 5637 5644 5641 5642 5641 5640 5649 5656 5656 5656 5665 5662 5661 5671 5669 5693 5690 5689 5685 5688 5699 5702 5693 5694 5695 5688 5682 5679
5525 5525 5529 5533 5540 5546 5553 5563 5569 5572 5575 5578 5579 5585 5611 5624 5625 5632 5635 5633 5634 5630 5630 5635 5641 5644 5646 5640 5647 5661 5661 5677 5677 5687 5684 5680 5691 5703 5696 5692 5690 5694 5693 5687 5682
5514 5516 5518 5522 5528 5536 5544 5556 5561 5562 5566 5569 5572 5576 5608 5613 5615 5616 5622 5622 5623 5618 5616 5616 5624 5631 5636 5641 5642 5661 5661 5664 5666 5681 5672 5680 5684 5700 5702 5697 5693 5697 5695 5690 5684
5503 5502 5507 5510 5515 5523 5535 5551 5560 5568 5565 5568 5583 5587 5594 5601 5601 5609 5611 5610 5616 5608 5607 5609 5612 5624 5639 5645 5657 5660 5655 5660 5677 5674 5664 5672 5680 5692 5701 5702 5697 5696 5695 5692 5686
5489 5491 5494 5499 5504 5511 5520 5529 5516 5515 5546 5562 5568 5569 5577 5578 5579 5595 5598 5597 5603 5607 5602 5598 5606 5631 5636 5643 5640 5642 5640 5649 5667 5669 5659 5667 5673 5689 5698 5702 5701 5699 5697 5696 5688
5477 5479 5482 5486 5493 5500 5503 5504 5501 5505 5523 5569 5568 5569 5574 5572 5577 5591 5590 5600 5595 5600 5598 5593 5618 5625 5624 5626 5623 5632 5635 5642 5648 5657 5661 5658 5664 5683 5697 5699 5698 5694 5698 5699 5694
5464 5467 5470 5474 5481 5485 5494 5491 5493 5493 5531 5568 5567 5571 5568 5568 5573 5590 5588 5591 5591 5592 5594 5592 5611 5610 5614 5617 5623 5622 5640 5638 5638 5639 5639 5653 5649 5680 5693 5693 5699 5702 5697 5695 5695
5451 5454 5458 5460 5467 5477 5475 5477 5482 5483 5531 5551 5559 5565 5569 5561 5570 5579 5583 5578 5579 5584 5583 5596 5600 5601 5603 5618 5622 5621 5631 5633 5632 5633 5639 5644 5640 5674 5691 5682 5694 5701 5707 5698 5695
5439 5443 5446 5451 5455 5459 5460 5465 5474 5500 5521 5537 5546 5546 5555 5557 5562 5568 5569 5571 5576 5573 5578 5578 5593 5592 5604 5614 5618 5623 5619 5623 5628 5630 5619 5638 5644 5673 5687 5688 5695 5700 5701 5697 5693
5427 5430 5434 5438 5447 5446 5448 5462 5484 5503 5522 5522 5524 5531 5538 5541 5549 5554 5559 5560 5563 5565 5570 5575 5577 5594 5596 5591 5607 5603 5606 5605 5607 5610 5618 5652 5640 5669 5691 5694 5697 5695 5702 5696 5693
5413 5417 5423 5425 5429 5431 5438 5456 5462 5496 5504 5508 5509 5515 5524 5526 5534 5541 5549 5551 5555 5559 5570 5574 5574 5587 5601 5602 5602 5597 5604 5605 5603 5624 5637 5641 5635 5669 5693 5699 5702 5697 5696 5698 5692
5402 5407 5412 5413 5414 5416 5428 5447 5485 5481 5481 5486 5497 5502 5513 5510 5516 5526 5531 5535 5539 5547 5552 5560 5574 5590 5594 5601 5603 5601 5590 5615 5606 5620 5609 5640 5648 5666 5688 5688 5692 5696 5696 5696 5694
5392 5396 5404 5403 5402 5404 5417 5442 5458 5453 5454 5465 5475 5481 5489 5489 5500 5506 5515 5523 5527 5531 5539 5543 5551 5578 5586 5594 5600 5603 5614 5590 5598 5590 5602 5631 5641 5650 5669 5681 5692 5695 5697 5699 5697
5374 5387 5396 5389 5388 5392 5409 5429 5433 5435 5431 5440 5452 5457 5462 5465 5476 5482 5495 5509 5514 5519 5526 5532 5537 5565 5574 5585 5593 5588 5589 5598 5609 5611 5608 5617 5643 5661 5665 5680 5684 5693 5698 5697 5695
5365 5371 5377 5376 5379 5391 5405 5407 5408 5416 5417 5420 5427 5433 5436 5445 5455 5465 5478 5489 5502 5502 5510 5515 5525 5537 5557 5578 5581 5582 5594 5598 5593 5599 5609 5614 5629 5657 5667 5676 5682 5685 5691 5692 5693
5352 5368 5359 5365 5382 5392 5396 5397 5397 5402 5405 5410 5416 5425 5430 5430 5434 5456 5465 5476 5480 5486 5495 5497 5512 5529 5553 5566 5567 5569 5578 5580 5585 5593 5599 5599 5619 5652 5653 5661 5669 5677 5689 5688 5686
5340 5353 5354 5352 5370 5390 5392 5395 5390 5390 5389 5395 5403 5410 5415 5420 5432 5438 5449 5459 5466 5470 5474 5479 5498 5514 5538 5547 5550 5552 5560 5569 5568 5569 5591 5604 5611 5629 5641 5656 5665 5675 5683 5688 5683
5332 5355 5366 5356 5358 5362 5376 5384 5386 5380 5382 5387 5391 5395 5401 5407 5419 5429 5441 5450 5458 5469 5476 5482 5491 5503 5513 5528 5536 5544 5552 5561 5564 5571 5569 5590 5599 5617 5628 5644 5659 5670 5677 5677 5681
5332 5346 5356 5370 5371 5364 5360 5368 5372 5374 5376 5385 5384 5395 5397 5403 5418 5427 5426 5442 5448 5457 5466 5461 5483 5489 5500 5517 5526 5532 5550 5563 5568 5572 5580 5587 5595 5610 5622 5637 5652 5661 5667 5671 5673
5327 5343 5349 5360 5359 5356 5362 5361 5371 5373 5379 5384 5386 5388 5396 5402 5396 5394 5405 5419 5431 5442 5449 5455 5471 5480 5499 5512 5516 5525 5550 5558 5576 5584 5580 5580 5602 5619 5623 5630 5644 5656 5662 5668 5672